Miscellaneous Local Product
Issued by NWS North Platte, NE

Home | Current Version | Previous Version | Text Only | Print | Product List | Glossary On
Versions: 1 2 3 4 5 6 7 8 9 10 11 12 13 14 15 16 17 18 19 20 21 22 23 24 25 26 27 28 29 30 31 32 33 34 35 36 37 38 39 40 41 42 43 44 45 46 47 48 49 50
000
AXUS43 KLBF 021510
MISLBF


WESTERN AND NORTH CENTRAL NEBRASKA HOURLY WEATHER ROUNDUP
NATIONAL WEATHER SERVICE NORTH PLATTE NE
1000 AM CDT THU JUL 02 2015

***STATIONS NOT REPORTING VARIABLES SUCH AS SKY/WEATHER OR
PRESSURE ARE PROVIDED BY THE NEBRASKA DEPARTMENT OF
ROADS...RAWS...AND APRS NETWORKS...AND ARE NOT UNDER
NATIONAL WEATHER SERVICE QUALITY CONTROL***

...OBSERVATIONS IN AND NEAR THE EASTERN PANHANDLE OF NEBRASKA...

CITY           SKY/WX    TMP DP  RH WIND       PRES   REMARKS
PINE RIDGE     PTSUNNY   69  62  78 NW8       30.09R
CHADRON        SUNNY     71  60  68 NW15G22   30.11R
ALLIANCE       SUNNY     68  61  78 NW13      30.11S
SIDNEY         MOSUNNY   68  61  78 W14       30.15R
WHITECLAY        N/A     69  61  76 NW7         N/A
CRESCENT LAKE    N/A     69  60  72 NW13G20     N/A
BIG SPRINGS      N/A     69  62  78 W7          N/A
$$

...OBSERVATIONS IN NORTH CENTRAL NEBRASKA...

CITY           SKY/WX    TMP DP  RH WIND       PRES   REMARKS
VALENTINE      MOSUNNY   74  62  66 NW14G22   30.00R
ORD            CLOUDY    73  66  78 N7        29.95S
BROKEN BOW     PTSUNNY   73  62  68 N9        29.99R
VALENTINE NWR    N/A     69  61  76 NW16        N/A
SPRINGVIEW       N/A     71  63  77 NE7         N/A
HALSEY           N/A     72  60  66 NW10G18     N/A
BREWSTER         N/A     77  64  64 NW14        N/A
ROSE             N/A     85  77  76 NW15        N/A  HX  96
NEWPORT          N/A     70  65  83 W6          N/A
CHAMBERS         N/A     70  68  93 CALM        N/A
EWING            N/A     64  63  97 CALM        N/A
$$

...OBSERVATIONS IN SOUTHWEST NEBRASKA AND FAR NORTHEAST COLORADO...

CITY           SKY/WX    TMP DP  RH WIND       PRES   REMARKS
WRAY           FAIR      68  57  68 S7        30.08F
HOLYOKE        FAIR      70  61  73 CALM      30.10R
IMPERIAL       CLOUDY    69  60  73 SW7       30.05F
NORTH PLATTE   MOSUNNY   74  62  66 NW13      30.02R
MCCOOK         CLOUDY    70  61  73 SW7       30.00F
PAXTON           N/A     71  65  82 W3          N/A
GOTHENBURG       N/A     73  60  64 W3          N/A
CALLAWAY         N/A     74  65  74 NW6         N/A
$$

...NORTH PLATTE AREA...

CITY           SKY/WX    TMP DP  RH WIND       PRES   REMARKS
AIRPORT        MOSUNNY   74  62  66 NW13      30.02R
DOWNTOWN         N/A     72  62  71 NW3         N/A
HILLCREST        N/A     71  63  76 NW12        N/A
$$

...SOME WEATHER OBSERVATIONS FROM AROUND THE REGION...

CITY           SKY/WX    TMP DP  RH WIND       PRES   REMARKS
DENVER         CLOUDY    60  53  77 W13       30.28F
LARAMIE        MOSUNNY   62  54  74 S7        30.34R
CHEYENNE       MOSUNNY   64  55  72 W8        30.26F
SCOTTSBLUFF    SUNNY     69  60  73 W14G21    30.14S
RAPID CITY     MOSUNNY   72  61  68 NW20      30.08R
PIERRE         PTSUNNY   63  62  97 SW7       29.99F
WINNER         PTSUNNY   68  61  78 E3        29.99R
SIOUX FALLS    CLOUDY    65  56  72 E5        30.00R
OMAHA          LGT RAIN  65  62  90 E5        29.97S
GRAND ISLAND   CLOUDY    73  69  87 CALM      29.94F
KANSAS CITY    DRIZZLE   71  68  90 NE9       29.93R
WICHITA        PTSUNNY   80  71  74 NE12      29.90S
HAYS           CLOUDY    68  61  77 N6        29.99R
LIBERAL        CLOUDY    79  59  50 N10       30.01R
GOODLAND       MOSUNNY   71  56  58 N10       30.11R
$$



USA.gov is the U.S. government's official web portal to all federal, state and local government web resources and services.